Location: Newark
(11.2914°S, 14.4718°E)
Time: 04:03:01
(UTC+00:00)

Explorer 11/Cluster Stage 4 - All Passes

Search period start: 19 September 2019 00:00
Search period end: 29 September 2019 00:00
Orbit: 467 x 1260 km, 28.8° (Epoch: 17 September)

Date Brightness Start Highest point End Pass type
(mag) Time Alt. Az. Time Alt. Az. Time Alt. Az.
19 Sep - 05:00:57 10° NNE 05:01:51 11° NE 05:02:47 10° NE daylight
19 Sep - 06:45:16 10° NW 06:49:47 69° NNE 06:55:34 10° ESE daylight
19 Sep - 08:33:52 10° W 08:38:49 34° SSW 08:44:52 10° SE daylight
19 Sep - 10:24:15 10° SW 10:29:00 20° S 10:34:20 10° SE daylight
19 Sep - 12:14:15 10° SW 12:19:47 21° S 12:25:42 10° SE daylight
19 Sep - 14:03:05 10° SW 14:10:25 36° SSE 14:17:48 10° E daylight
19 Sep - 15:52:01 10° WSW 16:00:24 84° SSE 16:08:05 10° ENE daylight
19 Sep - 17:42:38 10° W 17:49:34 32° NW 17:55:42 10° NNE visible
20 Sep - 04:49:18 10° N 04:51:15 13° NE 04:53:21 10° ENE daylight
20 Sep - 06:34:50 10° WNW 06:39:13 86° NNE 06:44:47 10° ESE daylight
20 Sep - 08:23:44 10° WSW 08:28:19 29° SSW 08:33:51 10° SE daylight
20 Sep - 10:14:09 10° SW 10:18:31 19° S 10:23:25 10° SE daylight
20 Sep - 12:03:44 10° SW 12:09:14 22° S 12:15:11 10° ESE daylight
20 Sep - 13:52:17 10° SW 13:59:43 40° SSE 14:07:19 10° E daylight
20 Sep - 15:41:13 10° WSW 15:49:34 86° NNW 15:57:25 10° ENE daylight
20 Sep - 17:32:08 10° W 17:38:45 28° NW 17:44:44 10° NNE visible
21 Sep - 04:38:11 10° N 04:40:40 16° NE 04:43:23 10° ENE daylight
21 Sep - 06:24:27 10° WNW 06:28:41 76° SSW 06:34:00 10° ESE daylight
21 Sep - 08:13:40 10° WSW 08:17:51 24° SSW 08:22:50 10° SE daylight
21 Sep - 10:04:04 10° SW 10:08:04 17° S 10:12:32 10° SE daylight
21 Sep - 11:53:12 10° SW 11:58:41 22° SSE 12:04:40 10° ESE daylight
21 Sep - 13:41:31 10° SW 13:48:58 44° SSE 13:56:47 10° E daylight
21 Sep - 15:30:27 10° WSW 15:38:43 75° NNW 15:46:40 10° NE daylight
21 Sep - 17:21:44 10° W 17:27:56 24° NW 17:33:41 10° NNE visible
22 Sep - 04:27:15 10° NNW 04:30:06 20° NE 04:33:14 10° E visible
22 Sep - 06:14:08 10° WNW 06:18:11 59° SSW 06:23:11 10° SE daylight
22 Sep - 08:03:41 10° WSW 08:07:26 21° SSW 08:11:48 10° SE daylight
22 Sep - 09:53:58 10° SW 09:57:37 16° S 10:01:41 10° SE daylight
22 Sep - 11:42:38 10° SW 11:48:06 23° SSE 11:54:09 10° ESE daylight
22 Sep - 13:30:45 10° SW 13:38:13 50° SSE 13:46:11 10° E daylight
22 Sep - 15:19:45 10° WSW 15:27:52 65° NNW 15:35:51 10° NE daylight
22 Sep - 17:11:27 10° WNW 17:17:09 21° NNW 17:22:32 10° NNE visible
23 Sep - 04:16:27 10° NNW 04:19:33 26° NNE 04:22:58 10° E visible
23 Sep - 06:03:52 10° W 06:07:43 45° SSW 06:12:21 10° SE daylight
23 Sep - 07:53:46 10° SW 07:57:01 17° S 08:00:44 10° SSE daylight
23 Sep - 09:43:52 10° SSW 09:47:11 15° S 09:50:52 10° SE daylight
23 Sep - 11:32:04 10° SW 11:37:31 24° SSE 11:43:39 10° ESE daylight
23 Sep - 13:20:02 10° SW 13:27:27 56° SSE 13:35:32 10° ENE daylight
23 Sep - 15:09:06 10° WSW 15:17:01 56° NNW 15:24:58 10° NE daylight
23 Sep - 17:01:19 10° WNW 17:06:22 17° NNW 17:11:14 10° N daylight
24 Sep - 04:05:44 10° NW 04:09:02 33° NNE 04:12:37 10° E visible
24 Sep - 05:53:40 10° W 05:57:17 35° SSW 06:01:31 10° SE daylight
24 Sep - 07:43:56 10° SW 07:46:38 15° S 07:49:37 10° SSE daylight
24 Sep - 09:33:43 10° SSW 09:36:46 14° S 09:40:07 10° SE daylight
24 Sep - 11:21:29 10° SW 11:26:55 26° SSE 11:33:07 10° ESE daylight
24 Sep - 13:09:20 10° SW 13:16:40 63° SSE 13:24:50 10° ENE daylight
24 Sep - 14:58:32 10° WSW 15:06:11 48° NNW 15:14:01 10° NE daylight
24 Sep - 16:51:26 10° WNW 16:55:37 15° NNW 16:59:44 10° N daylight
25 Sep - 03:55:04 10° NW 03:58:32 45° NNE 04:02:12 10° ESE visible
25 Sep - 05:43:32 10° W 05:46:51 27° SSW 05:50:39 10° SE daylight
25 Sep - 07:34:15 10° SSW 07:36:16 12° S 07:38:27 10° SSE daylight
25 Sep - 09:23:32 10° SSW 09:26:21 14° S 09:29:25 10° SE daylight
25 Sep - 11:10:53 10° SW 11:16:18 28° SSE 11:22:35 10° ESE daylight
25 Sep - 12:58:41 10° SW 13:05:53 72° SSE 13:14:04 10° ENE daylight
25 Sep - 14:48:02 10° W 14:55:21 41° NNW 15:02:59 10° NE daylight
25 Sep - 16:41:57 10° NW 16:44:55 12° NNW 16:47:50 10° N daylight
26 Sep - 03:44:29 10° NW 03:48:03 62° NNE 03:51:46 10° ESE visible
26 Sep - 05:33:28 10° WSW 05:36:28 22° SSW 05:39:46 10° SSE daylight
26 Sep - 07:24:51 10° SSW 07:25:55 11° S 07:27:01 10° S daylight
26 Sep - 09:13:18 10° SSW 09:15:55 13° SSE 09:18:48 10° SE daylight
26 Sep - 11:00:18 10° SW 11:05:42 30° SSE 11:12:01 10° E daylight
26 Sep - 12:48:04 10° WSW 12:55:06 82° SSE 13:03:16 10° ENE daylight
26 Sep - 14:37:37 10° W 14:44:32 35° NNW 14:51:52 10° NNE daylight
27 Sep - 01:48:14 10° N 01:49:25 11° NNE 01:50:33 10° NE night (unlit)
27 Sep - 03:33:56 10° WNW 03:37:35 86° NNE 03:41:17 10° ESE visible
27 Sep - 05:23:29 10° WSW 05:26:04 18° SSW 05:28:51 10° SSE daylight
27 Sep - 09:02:58 10° SSW 09:05:30 13° SSE 09:08:15 10° SE daylight
27 Sep - 10:49:43 10° SW 10:55:04 33° SSE 11:01:27 10° E daylight
27 Sep - 12:37:30 10° WSW 12:44:19 87° NNW 12:52:23 10° ENE daylight
27 Sep - 14:27:19 10° W 14:33:45 30° NNW 14:40:40 10° NNE daylight
28 Sep - 01:36:30 10° N 01:38:57 15° NNE 01:41:14 10° ENE night (unlit)
28 Sep - 03:23:26 10° WNW 03:27:07 70° SSW 03:30:46 10° ESE visible
28 Sep - 05:13:37 10° SW 05:15:41 14° SSW 05:17:52 10° SSE daylight
28 Sep - 08:52:34 10° SSW 08:55:03 13° SSE 08:57:47 10° SE daylight
28 Sep - 10:39:09 10° SW 10:44:26 36° SSE 10:50:50 10° E daylight
28 Sep - 12:26:59 10° WSW 12:33:34 75° NNW 12:41:27 10° NE daylight
28 Sep - 14:17:07 10° W 14:23:00 25° NNW 14:29:22 10° NNE daylight
